Weather in Gorny

Russia / Amur Oblast     54°38′53″N   128°25′09″E
temp.,
°C
wind,
m/s
gust,
m/s
humid.,
%
clouds,
%
prec.,
mm/h
press.,
hPa
HPBL,
m
13 may, thu
thu1300:00+8ne1184100 0.1 100428
03:00+6e4782100 0.8 1004443
06:00+5ene488385 0.8 1004320
09:00+9e51060100 0.8 1003808
12:00+12ese6848100 0.0 10021558
15:00+12se5554100 0.0 10021294
18:00+9e3573100 0.2 1004691
21:00+7nnw1191100 1.3 100558
14 may, fri
fri1400:00+6sse1194100 0.6 100633
03:00+6ese2496100 0.9 1006214
06:00+6e3696100 0.4 1007307
09:00+6e4692100 0.6 1008297
12:00+6ene3991100 0.4 1006480
15:00+6e3793100 3.4 1004604
18:00+6e61092100 5.8 1003931
21:00+6ne51194100 13.2 10011162
15 may, sat
sat1500:00+4ene41098100 5.3 1000690
03:00+4ne5997100 12.7 997902
06:00+5ne4994100 1.7 997871
09:00+4ene3796100 1.9 998663
12:00+6ne1392100 0.1 998404
15:00+8nw3579100 0.3 997944
18:00+8n5979100 0.4 998930
21:00+5n3885100 0.4 1000278
16 may, sun
sun1600:00+3nnw2391100 0.0 100162
03:00+2nw2293100 0.0 100121
06:00+4nnw2788100 0.0 1001215
09:00+10n2361100 0.0 1000880
12:00+14nw234363 0.0 9981933
15:00+14nnw144487 0.0 9981755
18:00+13nw234931 0.0 998430
21:00+8nne116611 0.0 99910
17 may, mon
mon1700:00+5ene37956 0.1 999141
03:00+5e4996100 0.3 998209
06:00+5e4793100 0.5 997261
09:00+6sw239157 2.6 996299
12:00+10w695782 0.2 9961588
15:00+12wnw8123820 0.2 9962301
18:00+11nw5103974 0.0 9982001
21:00+5nw225837 0.0 100128